Preview of NWS' New Version of Forecast
This preview is not operational and should not be used for support decisions.
Latest weather observations around

Santa Barbara, Santa Barbara Municipal Airport (KSBA)

Using International System of Units (Switch to English Units)
Date/ Time (PDT) Wind (kph) Vis. (km) Weather Sky Cond. Temp (°C) Rel. Humidity Wind Chill (°C) Heat Index (°C) Pressure Precip. (cm)
Air Dwpt 6 hour Altimeter (hPa) Sea level (hPa) 1 hr 3 hr 6 hr
Max Min
Sep 16 18:53 SE 9 16.09 Clear CLR 21 16     71%     1010.5 1010.3      
Sep 16 17:53 ESE 11 16.09 Clear CLR 22 17     73%   22 1010.8 1010.6      
Sep 16 16:53 S 15 16.09 Clear CLR 22 16     66%   22 1010.8 1010.8      
Sep 16 15:53 SE 9 16.09 Clear CLR 24 14     52%   24 1011.2 1011.2      
Sep 16 14:53 SSW 8 16.09 Partly Cloudy SCT100 24 13     50%   24 1012.2 1012.2      
Sep 16 13:53 SSE 9 16.09 Mostly Cloudy FEW030 BKN100 22 16     66%   22 1012.9 1012.8      
Sep 16 12:53 SSE 13 16.09 Partly Cloudy FEW040 SCT100 22 16     70%   22 1013.6 1013.3      
Sep 16 11:53 SE 17 16.09 Partly Cloudy SCT080 22 17     73%   22 1013.6 1013.4      
Sep 16 10:53 SE 18 16.09 Partly Cloudy SCT060 22 15     64%   22 1013.9 1013.8      
Sep 16 09:53 SE 15 16.09 Partly Cloudy SCT010 21 16     73%     1013.9 1013.9      
Sep 16 08:53 Calm 14.48 Partly Cloudy SCT010 20 15     73%     1013.9 1013.7      
Sep 16 07:53 Calm 11.27 Mostly Cloudy BKN010 18 16     87%     1013.2 1013.2      
Sep 16 06:53 E 5 11.27 Mostly Cloudy BKN010 17 16     90%     1012.5 1012.5      
Sep 16 05:53 NE 8 12.87 Mostly Cloudy BKN010 17 16     90%     1012.5 1012.4      
Sep 16 05:42 NW 8 16.09 Mostly Cloudy BKN010 17 15     87%     1012.9        
Sep 16 04:53 E 8 11.27 Mostly Cloudy BKN007 17 16     93%     1011.5 1011.5      
Sep 16 03:53 NNE 8 11.27 Mostly Cloudy BKN007 16 15     93%     1011.5 1011.4      
Sep 16 03:43 ENE 9 11.27 Partly Cloudy SCT007 16 15     93%     1011.2        
Sep 16 02:53 NE 9 9.66 Fog/Mist CLR 17 16     93%     1011.2 1011.2      
Sep 16 01:53 NE 8 12.87 Clear CLR 16 14     90%     1011.2 1011.2      
Sep 16 00:53 NE 5 12.87 Clear CLR 16 14     90%     1011.5 1011.4      
Sep 15 23:53 ENE 5 14.48 Clear CLR 16 14     90%     1011.2 1011.3      
Sep 15 22:53 NNE 9 16.09 Clear CLR 17 14     86%     1011.5 1011.3      
Sep 15 21:53 Calm 14.48 Clear CLR 17 16     90%     1011.2 1011      
Sep 15 20:53 E 8 16.09 Clear CLR 18 16     87%     1010.8 1010.8      
Sep 15 19:53 SSE 8 16.09 Clear CLR 18 16     87%     1010.8 1010.7      
Sep 15 18:53 SSE 5 16.09 Clear CLR 19 16     81%     1010.8 1010.7      
Sep 15 17:53 WSW 5 16.09 Partly Cloudy SCT100 19 17     84%     1010.8 1010.7      
Sep 15 16:53 SW 5 11.27 Partly Cloudy SCT008 SCT100 21 17     78%     1010.8 1010.7      
Sep 15 15:53 SSE 9 16.09 Partly Cloudy SCT008 SCT100 22 17     76%   22 1010.8 1010.7      
Sep 15 14:53 S 8 4.83 Haze SCT008 SCT100 20 17     84%     1011.5 1011.5      
Sep 15 14:30 S 9 12.87 Partly Cloudy SCT008 SCT100 22 17     76%   22 1011.5        
Sep 15 13:53 8 12.87 Partly Cloudy FEW002 SCT050 22 17     73%   22 1012.2 1012.1      
Sep 15 12:53 SSW 11 11.27 Mostly Cloudy SCT005 BKN050 22 17     76%   22 1012.2 1012      
Sep 15 11:53 8 11.27 Mostly Cloudy SCT005 BKN050 20 17     81%     1012.5 1012.4      
Sep 15 10:53 5 11.27 Partly Cloudy SCT009 21 17     81%     1012.5 1012.4      
Sep 15 10:29 SSE 11 9.66 Fog/Mist SCT009 20 17     84%     1012.5        
Sep 15 09:53 SE 11 6.44 Fog/Mist OVC006 18 17     90%     1012.9 1012.6      
Sep 15 09:45 SSE 9 6.44 Fog/Mist OVC006 18 17     90%     1012.9        
Sep 15 08:53 E 5 1.21 Fog/Mist OVC002 18 17     93%     1012.5 1012.5      
Sep 15 08:00 SE 9 0.4 Fog VV002 17 17     97%     1012.2        
Sep 15 07:53 ESE 8 0.4 Fog VV002 17 17     97%     1011.9 1011.9      
Sep 15 07:41 Calm 0.4 Fog OVC002 17 17     97%     1011.9        
Sep 15 07:28 SE 9 2.82 Fog/Mist OVC003 18 17     96%     1011.9        
Sep 15 06:53 E 8 6.44 Fog/Mist OVC004 18 17     93%     1011.5 1011.4      
Sep 15 06:26 E 8 9.66 Fog/Mist OVC004 18 17     93%     1011.2        
Sep 15 05:53 E 5 9.66 Fog/Mist OVC005 18 17     90%     1011.2 1011      
Sep 15 05:40 ESE 8 9.66 Fog/Mist BKN005 18 17     93%     1011.2        
Sep 15 05:32 E 8 9.66 Fog/Mist BKN004 18 17     93%     1011.2        
Sep 15 05:15 E 8 9.66 Fog/Mist SCT004 18 17     93%     1010.8        
Sep 15 04:53 E 8 8.05 Fog/Mist OVC003 18 17     93%     1010.8 1010.7      
Sep 15 04:39 E 9 6.44 Fog/Mist OVC003 18 17     93%     1010.8        
Sep 15 03:53 ENE 11 11.27 Cloudy OVC006 18 17     90%     1011.2 1011      
Sep 15 02:53 SE 8 12.87 Mostly Cloudy BKN006 18 17     90%     1011.2 1011.3      
Sep 15 02:39 ENE 5 12.87 Mostly Clear FEW006 18 17     90%     1011.2        
Sep 15 01:53 ESE 8 9.66 Fog/Mist CLR 18 17     93%     1011.2 1011      
Sep 15 00:53 ENE 8 11.27 Clear CLR 18 17     93%     1011.2 1011.1      
Sep 14 23:53 NE 8 12.87 Clear CLR 18 17     90%     1010.8 1010.9      
Sep 14 22:53 ESE 8 12.87 Clear CLR 19 17     90%     1010.8 1010.7      
Sep 14 21:53 E 5 16.09 Clear CLR 19 17     84%     1010.8 1010.8      
Sep 14 20:53 Calm 16.09 Clear CLR 19 17     84%     1010.8 1010.7      
Sep 14 19:53 S 5 16.09 Clear CLR 20 15     73%     1010.5 1010.4      
Sep 14 18:53 W 11 16.09 Clear CLR 23 16     66%   23 1010.5 1010.3      
Sep 14 17:53 W 17 16.09 Clear CLR 24 17     62%   25 1010.5 1010.4      
Sep 14 16:53 WSW 18 16.09 Clear CLR 26 16     54%   26 1010.5 1010.6      
Sep 14 15:53 SW 13 16.09 Clear CLR 27 17     53%   28 1011.2 1011.1      
Sep 14 14:53 S 9 16.09 Clear CLR 28 16     48%   29 1011.5 1011.4      
Sep 14 13:53 SSE 11 16.09 Clear CLR 27 16     51%   27 1012.2 1012.2      
Sep 14 12:53 SSE 15 16.09 Clear CLR 25 18     66%   25 1012.9 1012.7      
Sep 14 11:53 SE 13 16.09 Clear CLR 26 18     64%   26 1013.2 1013.2      
Sep 14 10:53 SE 13 16.09 Clear CLR 24 18     67%   25 1013.6 1013.5      
Sep 14 09:53 SE 11 16.09 Clear CLR 24 16     58%   24 1013.2 1013.3      
Sep 14 08:53 Calm 16.09 Clear CLR 23 16     64%   23 1013.2 1013      
Sep 14 07:53 Calm 16.09 Clear CLR 18 14     81%     1012.9 1012.9      
Sep 14 06:53 NE 5 16.09 Clear CLR 15 12     83%     1012.5 1012.4      
Sep 14 05:53 Calm 16.09 Clear CLR 14 12     87%     1012.2 1012      
Sep 14 04:53 Calm 16.09 Clear CLR 17 13     75%     1011.5 1011.6      
Sep 14 03:53 Calm 16.09 Clear CLR 18 16     87%     1011.2 1011.2      
Sep 14 02:53 Calm 16.09 Clear CLR 16 15     93%     1011.5 1011.3      
Sep 14 01:53 Calm 16.09 Clear CLR 17 16     93%     1011.5 1011.5      
Sep 14 00:53 Calm 16.09 Clear CLR 19 17     90%     1011.5 1011.5      
Sep 13 23:53 Calm 16.09 Clear CLR 19 18     93%     1011.5 1011.5      
Sep 13 22:53 SSW 5 16.09 Clear CLR 18 15     84%     1011.2 1011.1      
Sep 13 21:53 Calm 16.09 Clear CLR 18 17     93%     1011.5 1011.4      
Sep 13 20:53 Calm 16.09 Clear CLR 19 17     87%     1011.9 1011.7      
Sep 13 19:53 W 9 16.09 Clear CLR 20 17     84%     1011.5 1011.4      
Sep 13 18:53 SW 11 16.09 Clear   22 17     73%   22 1011.5 1011.4      
May 15 11:53 S 13 16.09 Mostly Clear FEW040 17 12     70%     1018.3 1018.1      
May 15 01:53 Calm 16.09 Clear   11 8     83%     1015.2 1015.1      
May 14 16:53 W 24 16.09 Clear CLR 18 9     56%     1014.6 1014.3      
May 14 13:53   16.09 Clear CLR 19 10     56%     1015.9 1015.8      
May 12 22:53 W 13 16.09 Cloudy OVC042 14 12     84%     1016.3 1016.1      
May 12 00:53 Calm 16.09 Cloudy OVC019 14 11     81%     1011.9 1011.6      
May 11 17:53 W 11 16.09 Cloudy OVC018 14 11     78%     1009.5 1009.5      
May 11 08:53 SSW 9 12.87 Cloudy OVC026 15 12     81%     1011.5 1011.5      
Jun 11 20:53 WNW 21 16.09 Clear CLR 16 6     51%     1013.6 1013.6      
Jun 11 19:53 NNW 26 16.09 Clear CLR 17 5     45%     1013.2 1013.2      
Jun 10 01:53 E 9 16.09 Clear CLR 16 11     75%     1011.2 1011.2      
Jun 09 14:53   16.09 Partly Cloudy FEW004 SCT040 21 16     75%     1012.9 1013      
Jun 08 20:33 SE 18 16.09 Clear CLR 17 13     78%     1012.5        
Jun 08 09:04 WSW 9 16.09 Partly Cloudy SCT030 18 13     75%     1016.3        
Jun 08 04:53 Calm 16.09 Cloudy FEW010 OVC019 15 14     93%     1015.6 1015.4      
Jun 07 23:53 Calm 16.09 Cloudy OVC019 16 14     87%     1015.2 1015      
Jun 07 22:53 W 11 16.09 Cloudy OVC020 15 14     93%     1015.2 1015.1      
Jun 07 15:53 W 15 16.09 Cloudy OVC023 18 14     78%     1014.2 1014.2